Location: Chervonnoye
(48.6000°N, 34.4000°E)
Time: 16:58:18
(UTC+00:00)

Cosmos 2221 - Visible Passes

Search period start: 16 April 2021 00:00
Search period end: 26 April 2021 00:00
Orbit: 592 x 616 km, 82.5° (Epoch: 16 April)

Date Brightness Start Highest point End Pass type
(mag) Time Alt. Az. Time Alt. Az. Time Alt. Az.
16 Apr 3.7 20:28:51 39° N 20:28:51 39° N 20:31:37 10° N visible
16 Apr 5.3 22:05:40 10° WNW 22:05:40 10° WNW 22:06:05 10° NW visible
17 Apr 4.6 19:04:16 15° ENE 19:04:16 15° ENE 19:05:35 10° NE visible
17 Apr 3.7 20:41:06 39° NNW 20:41:06 39° NNW 20:44:09 10° N visible
18 Apr 4.1 19:16:30 22° ENE 19:16:30 22° ENE 19:18:49 10° NNE visible
18 Apr 4.1 20:53:18 31° NW 20:53:18 31° NW 20:56:33 10° N visible
19 Apr 3.4 19:28:41 35° ENE 19:28:41 35° ENE 19:31:46 10° NNE visible
19 Apr 4.5 21:05:30 21° WNW 21:05:30 21° WNW 21:08:48 10° NNW visible
20 Apr 2.7 19:40:51 58° NE 19:40:51 58° NE 19:44:32 10° NNE visible
20 Apr 5.0 21:17:40 14° WNW 21:18:20 14° WNW 21:20:42 10° NNW visible
21 Apr 4.6 18:16:11 12° ENE 18:16:11 12° ENE 18:17:31 10° ENE visible
21 Apr 2.5 19:52:59 75° WNW 19:52:59 75° WNW 19:57:10 10° N visible
22 Apr 4.1 18:28:17 18° E 18:28:21 18° E 18:31:18 10° NE visible
22 Apr 3.2 20:05:06 44° W 20:05:32 46° WNW 20:09:42 10° N visible
23 Apr 3.4 18:40:22 28° E 18:40:47 28° E 18:44:28 10° NNE visible
23 Apr 4.1 20:17:10 26° W 20:18:17 30° WNW 20:22:05 10° N visible
24 Apr 2.8 18:52:23 39° SE 18:53:16 45° E 18:57:22 10° NNE visible
24 Apr 4.7 20:29:12 15° W 20:31:05 20° WNW 20:34:16 10° NNW visible
25 Apr 2.4 19:04:22 40° S 19:05:49 74° E 19:10:07 10° NNE visible
25 Apr 5.2 20:41:51 10° W 20:43:56 13° WNW 20:46:03 10° NNW visible
